Location: Preissac
(48.4072°N, 78.3618°W)
Time: 13:52:13
(UTC-04:00)

OTV 5 (USA 277) - Visible Passes

Search period start: 24 August 2019 00:00
Search period end: 03 September 2019 00:00
Orbit: 305 x 329 km, 54.5° (Epoch: 20 August)

Date Brightness Start Highest point End Pass type
(mag) Time Alt. Az. Time Alt. Az. Time Alt. Az.
24 Aug ? 21:33:55 10° SW 21:36:29 39° SE 21:37:02 34° ESE visible
25 Aug ? 21:48:17 10° WSW 21:50:59 86° NNW 21:52:02 33° ENE visible
26 Aug ? 22:03:00 10° W 22:05:36 42° NNW 22:06:36 28° NNE visible
27 Aug ? 20:43:09 10° SW 20:45:49 62° SSE 20:48:29 10° ENE visible
27 Aug ? 22:17:55 10° WNW 22:20:18 27° NNW 22:20:53 25° N visible
28 Aug ? 20:57:42 10° WSW 21:00:23 59° NNW 21:03:03 10° NE visible
28 Aug ? 22:32:52 10° WNW 22:35:00 22° N 22:35:00 22° N visible
29 Aug ? 21:12:33 10° W 21:15:03 33° NNW 21:17:32 10° NE visible
29 Aug ? 22:47:43 10° NW 22:49:00 18° NNW 22:49:00 18° NNW visible
30 Aug ? 21:27:29 10° WNW 21:29:48 24° N 21:32:02 10° NE visible
30 Aug ? 23:02:25 10° NW 23:02:55 13° NW 23:02:55 13° NW visible
31 Aug ? 21:42:25 10° NW 21:44:35 21° N 21:45:56 15° NE visible
01 Sep ? 21:57:11 10° NW 21:59:24 22° N 21:59:47 21° NNE visible
02 Sep ? 20:37:03 10° WNW 20:39:18 22° N 20:41:31 10° NE visible
02 Sep ? 22:11:48 10° NW 22:13:37 24° N 22:13:37 24° N visible
